TimeEST,TemperatureF,Dew PointF,Humidity,Sea Level PressureIn,VisibilityMPH,Wind Direction,Wind SpeedMPH,Gust SpeedMPH,PrecipitationIn,Events,Conditions,WindDirDegrees,DateUTC
12:15 AM,62.6,62.6,100,30.18,10.0,Calm,Calm,-,N/A,Rain,Rain,0,2012-11-13 05:15:00
12:35 AM,62.6,62.6,100,30.18,10.0,Calm,Calm,-,0.01,,Overcast,0,2012-11-13 05:35:00
12:55 AM,62.6,62.6,100,30.18,10.0,Calm,Calm,-,0.01,,Overcast,0,2012-11-13 05:55:00
1:15 AM,55.4,55.4,100,30.18,7.0,North,12.7,-,N/A,Rain,Light Rain,360,2012-11-13 06:15:00
1:35 AM,53.6,53.6,100,30.19,10.0,North,12.7,-,0.01,Rain,Rain,350,2012-11-13 06:35:00
1:55 AM,53.6,51.8,94,30.19,10.0,North,11.5,16.1,0.01,,Light Drizzle,350,2012-11-13 06:55:00
2:15 AM,51.8,50.0,94,30.19,10.0,NNW,15.0,20.7,N/A,,Drizzle,340,2012-11-13 07:15:00
2:35 AM,51.8,50.0,94,30.20,10.0,NNW,15.0,23.0,N/A,Rain,Rain,340,2012-11-13 07:35:00
2:55 AM,50.0,50.0,100,30.20,10.0,North,10.4,-,N/A,,Overcast,350,2012-11-13 07:55:00
3:15 AM,50.0,50.0,100,30.20,10.0,North,10.4,-,N/A,,Overcast,350,2012-11-13 08:15:00
3:35 AM,50.0,50.0,100,30.21,10.0,North,8.1,-,N/A,,Overcast,360,2012-11-13 08:35:00
3:55 AM,50.0,50.0,100,30.20,10.0,North,6.9,-,N/A,,Drizzle,360,2012-11-13 08:55:00
4:15 AM,50.0,50.0,100,30.20,10.0,North,5.8,-,N/A,,Overcast,350,2012-11-13 09:15:00
4:35 AM,50.0,50.0,100,30.20,10.0,North,5.8,-,N/A,,Overcast,10,2012-11-13 09:35:00
4:55 AM,50.0,50.0,100,30.21,10.0,North,5.8,-,N/A,,Overcast,10,2012-11-13 09:55:00
5:15 AM,50.0,50.0,100,30.22,10.0,NNE,4.6,-,N/A,,Overcast,20,2012-11-13 10:15:00
5:35 AM,50.0,50.0,100,30.23,10.0,North,4.6,-,N/A,,Overcast,360,2012-11-13 10:35:00
6:15 AM,50.0,46.4,87,30.23,10.0,North,5.8,-,N/A,Rain,Light Rain,10,2012-11-13 11:15:00
6:35 AM,50.0,48.2,94,30.24,10.0,NNE,5.8,-,N/A,Rain,Light Rain,20,2012-11-13 11:35:00
6:55 AM,50.0,48.2,94,30.25,10.0,NNE,4.6,-,N/A,Rain,Light Rain,20,2012-11-13 11:55:00
7:15 AM,50.0,48.2,94,30.25,10.0,North,5.8,-,N/A,,Overcast,10,2012-11-13 12:15:00
7:35 AM,50.0,48.2,94,30.26,10.0,NNE,6.9,-,N/A,,Overcast,30,2012-11-13 12:35:00
8:15 AM,50.0,46.4,87,30.27,10.0,North,9.2,-,N/A,,Overcast,10,2012-11-13 13:15:00
8:35 AM,50.0,44.6,82,30.28,10.0,NNE,9.2,-,N/A,,Mostly Cloudy,20,2012-11-13 13:35:00
8:55 AM,50.0,44.6,82,30.30,10.0,North,9.2,-,N/A,,Overcast,10,2012-11-13 13:55:00
9:15 AM,50.0,42.8,76,30.30,10.0,NNE,9.2,-,N/A,,Mostly Cloudy,30,2012-11-13 14:15:00
9:35 AM,51.8,42.8,71,30.31,10.0,NNE,11.5,-,N/A,,Overcast,20,2012-11-13 14:35:00
9:55 AM,53.6,42.8,67,30.31,10.0,North,12.7,-,N/A,,Scattered Clouds,10,2012-11-13 14:55:00
10:15 AM,53.6,42.8,67,30.32,10.0,NNE,10.4,-,N/A,,Mostly Cloudy,30,2012-11-13 15:15:00
10:35 AM,55.4,44.6,67,30.32,10.0,NE,12.7,-,N/A,,Overcast,40,2012-11-13 15:35:00
10:55 AM,55.4,42.8,63,30.32,10.0,NNE,9.2,-,N/A,,Mostly Cloudy,30,2012-11-13 15:55:00
11:15 AM,55.4,41.0,58,30.31,10.0,ENE,11.5,17.3,N/A,,Mostly Cloudy,70,2012-11-13 16:15:00
11:35 AM,57.2,37.4,48,30.31,10.0,NNE,6.9,-,N/A,,Mostly Cloudy,30,2012-11-13 16:35:00
11:55 AM,59.0,37.4,45,30.30,10.0,ENE,6.9,-,N/A,,Mostly Cloudy,60,2012-11-13 16:55:00
12:15 PM,59.0,37.4,45,30.30,10.0,NNE,9.2,-,N/A,,Mostly Cloudy,20,2012-11-13 17:15:00
12:35 PM,60.8,37.4,42,30.28,10.0,North,8.1,-,N/A,,Overcast,10,2012-11-13 17:35:00
12:55 PM,60.8,37.4,42,30.27,10.0,NE,9.2,-,N/A,,Mostly Cloudy,40,2012-11-13 17:55:00
1:15 PM,60.8,35.6,39,30.27,10.0,North,9.2,-,N/A,,Clear,10,2012-11-13 18:15:00
1:35 PM,60.8,35.6,39,30.26,10.0,North,10.4,-,N/A,,Clear,10,2012-11-13 18:35:00
1:55 PM,62.6,37.4,39,30.26,10.0,North,3.5,-,N/A,,Clear,10,2012-11-13 18:55:00
2:15 PM,62.6,41.0,45,30.26,10.0,NNE,6.9,-,N/A,,Clear,30,2012-11-13 19:15:00
2:35 PM,62.6,41.0,45,30.25,10.0,NE,6.9,-,N/A,,Clear,50,2012-11-13 19:35:00
2:55 PM,62.6,35.6,37,30.25,10.0,NE,9.2,-,N/A,,Clear,40,2012-11-13 19:55:00
3:15 PM,62.6,33.8,34,30.25,10.0,NE,9.2,-,N/A,,Clear,40,2012-11-13 20:15:00
3:35 PM,62.6,35.6,37,30.25,10.0,NE,6.9,-,N/A,,Clear,40,2012-11-13 20:35:00
3:55 PM,62.6,35.6,37,30.26,7.0,NE,8.1,-,N/A,,Clear,40,2012-11-13 20:55:00
4:15 PM,62.6,33.8,34,30.26,10.0,ENE,6.9,-,N/A,,Clear,70,2012-11-13 21:15:00
4:35 PM,60.8,33.8,36,30.27,10.0,ENE,5.8,9.2,N/A,,Clear,60,2012-11-13 21:35:00
4:55 PM,60.8,33.8,36,30.27,10.0,East,6.9,-,N/A,,Clear,80,2012-11-13 21:55:00
5:15 PM,59.0,33.8,39,30.27,10.0,East,5.8,-,N/A,,Clear,80,2012-11-13 22:15:00
5:35 PM,57.2,35.6,44,30.28,10.0,Calm,Calm,-,N/A,,Clear,0,2012-11-13 22:35:00
5:55 PM,55.4,35.6,47,30.28,10.0,East,4.6,-,N/A,,Clear,80,2012-11-13 22:55:00
6:15 PM,53.6,35.6,51,30.29,10.0,East,3.5,-,N/A,,Clear,80,2012-11-13 23:15:00
6:35 PM,53.6,33.8,47,30.30,10.0,East,3.5,-,N/A,,Clear,80,2012-11-13 23:35:00
7:15 PM,51.8,32.0,47,30.31,10.0,ENE,4.6,-,N/A,,Clear,60,2012-11-14 00:15:00
7:35 PM,51.8,32.0,47,30.32,7.0,ENE,4.6,-,N/A,,Clear,60,2012-11-14 00:35:00
7:55 PM,50.0,32.0,50,30.33,7.0,NE,4.6,-,N/A,,Clear,50,2012-11-14 00:55:00
8:15 PM,50.0,32.0,50,30.33,7.0,NE,4.6,-,N/A,,Clear,50,2012-11-14 01:15:00
8:35 PM,46.4,32.0,57,30.34,2.0,NNE,5.8,-,N/A,,Haze,20,2012-11-14 01:35:00
8:55 PM,48.2,32.0,54,30.35,7.0,NE,6.9,-,N/A,,Clear,40,2012-11-14 01:55:00
9:15 PM,46.4,32.0,57,30.35,10.0,NE,5.8,-,N/A,,Clear,40,2012-11-14 02:15:00
9:35 PM,46.4,32.0,57,30.36,10.0,NE,5.8,-,N/A,,Clear,40,2012-11-14 02:35:00
10:15 PM,46.4,32.0,57,30.37,10.0,NE,5.8,-,N/A,,Clear,40,2012-11-14 03:15:00
10:35 PM,46.4,32.0,57,30.37,10.0,NE,6.9,-,N/A,,Clear,50,2012-11-14 03:35:00
10:55 PM,46.4,32.0,57,30.37,10.0,NE,6.9,-,N/A,,Clear,40,2012-11-14 03:55:00
11:15 PM,44.6,32.0,61,30.37,10.0,NE,5.8,-,N/A,,Clear,40,2012-11-14 04:15:00
11:35 PM,44.6,32.0,61,30.37,10.0,NE,5.8,-,N/A,,Clear,50,2012-11-14 04:35:00